Retour au catalogue

STARLINK-35923

ActifCommunicationsVLEO
NORAD 66641·PAYLOAD·🇺🇸 United States

Lancé Nov 23, 2025 depuis Vandenberg Space Force Base

Loading…

Prochains Passages (prochaines 24 heures)

TLE

FraisSource: CelesTrak SupGP

Époque: Sep 15, 2026, 03:43 UTC

1 66641C 25271AA  26258.15534722  .00069359  00000+0  20487-2 0  2584
2 66641  53.1595 338.6091 0001218  89.5614 236.6655 15.34364011    10

Suivez STARLINK-35923 en temps réel avec AllMySat

Download on the App Store